Location: Casco Volunteer Fire Department
(44.5576°N, 87.6146°W)
Time: 04:13:51
(UTC+00:00)

Helios 1A Rocket - Pass Details

Date: 22 January 2026
Orbit: 426 x 436 km, 98.3° (Epoch: 11 February)

Event Time Altitude Azimuth Distance (km) Brightness Sun altitude
Rises 12:06:24 0° 178° (S) 2,430 6.3 -12.9°
Reaches altitude 10° 12:08:28 10° 185° (S) 1,564 5.3 -12.5°
Maximum altitude 12:11:42 45° 259° (W) 614 2.7 -12.0°
Drops below altitude 10° 12:14:57 10° 334° (NNW) 1,573 4.8 -11.4°
Enters shadow 12:15:28 - 336° (NNW) 1,781 5.0 -11.3°
